Location: Newark
(48.1500°N, 2.9667°W)
Time: 16:40:14
(UTC+00:00)

Altair - Visible Passes

Search period start: 19 January 2021 00:00
Search period end: 29 January 2021 00:00
Orbit: 1501 x 1682 km, 47.2° (Epoch: 18 January)

Date Brightness Start Highest point End Pass type
(mag) Time Alt. Az. Time Alt. Az. Time Alt. Az.
19 Jan 9.3 05:05:10 10° S 05:12:56 26° SE 05:20:47 10° E visible
19 Jan 8.2 07:06:30 10° SW 07:16:23 62° SSE 07:26:19 10° ENE visible
20 Jan 9.3 04:40:27 10° S 04:47:53 24° SE 04:55:23 10° E visible
20 Jan 8.3 06:41:24 10° SW 06:51:13 59° SSE 07:01:06 10° ENE visible
21 Jan 9.4 04:15:48 10° S 04:22:50 22° SE 04:29:57 10° E visible
21 Jan 8.3 06:16:20 10° SW 06:26:03 56° SSE 06:35:52 10° ENE visible
22 Jan 9.4 03:51:13 10° S 03:57:48 20° SE 04:04:27 10° E visible
22 Jan 8.3 05:51:16 10° SW 06:00:54 54° SSE 06:10:39 10° ENE visible
23 Jan 9.4 03:27:56 13° SSE 03:32:47 18° SE 03:38:55 10° E visible
23 Jan 8.3 05:26:14 10° SW 05:35:45 51° SE 05:45:25 10° ENE visible
24 Jan 9.4 03:05:00 14° SE 03:07:45 16° SE 03:13:16 10° E visible
24 Jan 8.3 05:03:05 17° SSW 05:10:37 48° SE 05:20:10 10° ENE visible
24 Jan 7.8 07:04:47 10° WSW 07:14:55 81° SSE 07:25:06 10° E visible
25 Jan 9.5 02:41:53 14° SE 02:42:45 14° ESE 02:47:31 10° E visible
25 Jan 8.3 04:39:57 25° SSW 04:45:29 45° SE 04:54:55 10° ENE visible
25 Jan 7.8 06:39:36 10° WSW 06:49:42 79° SSE 06:59:53 10° E visible
26 Jan 9.6 02:18:37 13° ESE 02:18:37 13° ESE 02:21:33 10° E visible
26 Jan 8.4 04:16:39 32° S 04:20:22 43° SE 04:29:39 10° ENE visible
26 Jan 7.8 06:14:43 11° WSW 06:24:29 78° SSE 06:34:40 10° E visible
27 Jan 8.4 03:53:15 37° SSE 03:55:15 40° SE 04:04:23 10° ENE visible
27 Jan 7.8 05:51:18 18° WSW 05:59:16 76° SSE 06:09:26 10° E visible
28 Jan 8.4 03:29:45 37° SE 03:30:10 37° SE 03:39:06 10° ENE visible
28 Jan 7.7 05:27:48 27° WSW 05:34:04 74° SSE 05:44:13 10° E visible
